EW6420 Weather Reports


Display with metric or nautical units.
time (UTC)temp
F
wind
direction
speed
MPH
gust
MPH
rain 1hr
in
rain 24hr
in
rain mn
in
humidity
%
barometer
mb
20260903020005 58 322 0.0 2.0 0.01 0.24 0.24 90 1005.6
20260903014502 58 322 0.0 2.0 0.01 0.24 0.24 91 1005.3
20260903013002 58 281 0.0 2.0 0.02 0.24 0.24 92 1005.2
20260903011502 58 281 0.0 2.0 0.07 0.24 0.24 93 1005.1
20260903010006 58 281 0.0 2.0 0.06 0.23 0.23 92 1005.1
20260903004502 57 282 0.0 2.0 0.06 0.23 0.23 92 1004.9
20260903001503 59 31 0.0 2.0 0.00 0.17 0.17 92 1004.9
20260903000005 58 83 0.0 0.0 0.00 0.17 0.17 92 1003.9
20260902233002 58 83 0.0 0.0 0.02 0.17 0.17 91 1004.0
20260902231502 58 83 0.0 0.0 0.04 0.17 0.17 91 1004.1
20260902230006 58 83 0.0 0.0 0.06 0.17 0.17 90 1003.8
20260902223002 59 83 0.0 2.0 0.06 0.14 0.14 89 1004.0
20260902221503 59 28 0.0 0.0 0.07 0.13 0.13 88 1003.9
20260902220008 59 28 0.0 2.0 0.06 0.11 0.11 88 1004.0
20260902214503 60 28 0.0 2.0 0.07 0.10 0.10 87 1003.9
20260902213001 60 28 0.0 2.0 0.07 0.08 0.08 86 1004.1
20260902211500 61 28 0.0 0.0 0.06 0.06 0.06 84 1004.1
20260902210002 62 28 0.0 2.0 0.05 0.05 0.05 83 1004.1
20260902203002 64 28 0.0 2.0 0.01 0.01 0.01 75 1004.2
20260902200005 66 7 0.0 2.0 0.00 0.00 0.00 68 1004.2
20260902193003 66 11 0.0 2.0 0.00 0.00 0.00 64 1004.5
20260902191503 66 11 0.0 4.0 0.00 0.00 0.00 63 1004.6
20260902190004 69 11 1.0 4.0 0.00 0.00 0.00 57 1004.8
20260902183002 68 180 1.0 3.0 0.00 0.00 0.00 57 1004.5
20260902180007 65 16 0.0 2.0 0.00 0.00 0.00 65 1004.9
20260902173002 63 6 0.0 2.0 0.00 0.00 0.00 66 1005.2
20260902171502 63 6 0.0 2.0 0.00 0.00 0.00 67 1005.4
20260902170005 63 11 0.0 2.0 0.00 0.00 0.00 67 1005.5
20260902164501 62 11 0.0 2.0 0.00 0.00 0.00 69 1005.8
20260902163001 62 11 0.0 0.0 0.00 0.00 0.00 72 1005.9
20260902161502 61 11 0.0 0.0 0.00 0.00 0.00 74 1006.0
20260902160007 61 11 0.0 2.0 0.00 0.00 0.00 75 1006.0
20260902154500 60 11 0.0 1.0 0.00 0.00 0.00 78 1006.2
20260902153000 59 11 0.0 0.0 0.00 0.00 0.00 83 1006.3
20260902151501 58 11 0.0 0.0 0.00 0.00 0.00 84 1006.4
20260902150005 57 11 0.0 0.0 0.00 0.00 0.00 89 1006.6
20260902144501 57 11 0.0 0.0 0.00 0.00 0.00 89 1006.9
20260902143002 56 11 0.0 0.0 0.00 0.00 0.00 89 1007.0
20260902141502 56 11 0.0 0.0 0.00 0.00 0.00 89 1007.1
20260902140001 56 11 0.0 0.0 0.00 0.00 0.00 89 1007.2
20260902134501 56 11 0.0 0.0 0.00 0.00 0.00 89 1007.2
20260902133002 56 11 0.0 0.0 0.00 0.00 0.00 89 1007.3
20260902131502 56 11 0.0 0.0 0.00 0.00 0.00 89 1007.3
20260902130003 56 11 0.0 0.0 0.00 0.00 0.00 89 1007.4
20260902124503 56 11 0.0 0.0 0.00 0.00 0.00 89 1007.5
20260902123001 56 11 0.0 0.0 0.00 0.00 0.00 89 1007.7
20260902120002 57 11 0.0 0.0 0.00 0.00 0.00 89 1007.8
20260902114503 57 11 0.0 0.0 0.00 0.00 0.00 88 1008.0
20260902113000 57 11 0.0 0.0 0.00 0.00 0.00 88 1008.1
20260902111500 58 11 0.0 1.0 0.00 0.00 0.00 87 1008.1
20260902110007 58 11 0.0 2.0 0.00 0.00 0.00 87 1008.2
20260902103001 58 11 0.0 0.0 0.00 0.00 0.00 87 1008.5
20260902101502 58 11 0.0 0.0 0.00 0.00 0.00 87 1008.6
20260902100006 58 11 0.0 0.0 0.00 0.00 0.00 87 1008.7
20260902094459 58 11 0.0 1.0 0.00 0.00 0.00 87 1008.8
20260902093000 59 11 0.0 0.0 0.00 0.00 0.00 86 1008.8
20260902091501 59 11 0.0 0.0 0.00 0.00 0.00 84 1008.9
20260902090000 60 11 0.0 0.0 0.00 0.00 0.00 84 1008.9
20260902084501 60 11 0.0 0.0 0.00 0.00 0.00 84 1008.9
20260902080005 60 11 0.0 0.0 0.00 0.00 0.00 84 1009.3
20260902074506 60 11 0.0 0.0 0.00 0.00 0.00 83 1009.4
20260902073003 60 11 0.0 0.0 0.00 0.00 0.00 82 1009.5
20260902071503 60 11 0.0 0.0 0.00 0.00 0.00 82 1009.6
20260902070007 60 11 0.0 0.0 0.00 0.00 0.00 82 1009.7
20260902064503 60 11 0.0 0.0 0.00 0.00 0.00 82 1009.7
20260902063005 61 11 0.0 0.0 0.00 0.00 0.00 81 1009.7
20260902061504 61 11 0.0 0.0 0.00 0.00 0.00 81 1009.8
20260902060004 61 11 0.0 0.0 0.00 0.00 0.00 81 1009.8
20260902054502 61 11 0.0 0.0 0.00 0.00 0.00 81 1009.9
20260902053002 61 11 0.0 0.0 0.00 0.00 0.00 81 1009.9
20260902051502 61 11 0.0 0.0 0.00 0.00 0.00 80 1010.0
20260902050008 61 11 0.0 2.0 0.00 0.00 0.00 80 1010.1
20260902044503 62 11 0.0 0.0 0.00 0.00 0.00 79 1010.1
20260902043004 62 11 0.0 2.0 0.00 0.00 0.00 79 1010.0
20260902040005 62 11 0.0 2.0 0.00 0.00 0.00 79 1010.1
20260902034502 62 11 0.0 0.0 0.00 0.00 0.00 79 1010.1
20260902033003 62 11 0.0 0.0 0.00 0.00 0.00 79 1010.1
20260902031502 63 11 0.0 1.0 0.00 0.00 0.00 78 1010.1
20260902030003 63 11 0.0 1.0 0.00 0.00 0.00 77 1010.0
20260902024502 63 11 0.0 0.0 0.00 0.00 0.00 75 1009.8